Weather reports worldwide

Advertisment
Marham, United Kingdom (3482): temperature & dewpoint: 20.03.2019 07:00:00 - 26.03.2019 07:00:00 (GMT)Marham, United Kingdom (3482): temperature -20cm & temperature -100cm: 20.03.2019 07:00:00 - 26.03.2019 07:00:00 (GMT)Marham, United Kingdom (3482): wind speed & gusts: 20.03.2019 07:00:00 - 26.03.2019 07:00:00 (GMT)Marham, United Kingdom (3482): wind direction: 20.03.2019 07:00:00 - 26.03.2019 07:00:00 (GMT)Marham, United Kingdom (3482): reduced air pressure: 20.03.2019 07:00:00 - 26.03.2019 07:00:00 (GMT)Marham, United Kingdom (3482): visibility: 20.03.2019 07:00:00 - 26.03.2019 07:00:00 (GMT)Marham, United Kingdom (3482): precipitation: 20.03.2019 07:00:00 - 26.03.2019 07:00:00 (GMT)
Date & Time tt [°C] td [°C] tt -20cm [°C] tt -100cm [°C] ff [km/h] ff [kn] fx [km/h] fx [kn] dd ppp [hPa] vv [km] rr [mm]
26.03.2019 07:00:00 0,0 0,0 - - 2 1 - - SSW - 10 -
26.03.2019 06:00:00 -1,2 -1,8 - - 4 2 - - SW 1033,9 10 0,0
26.03.2019 05:00:00 0,0 -0,3 - - 5 3 - - SSE 1033,7 10 0,0
26.03.2019 04:00:00 -1,0 -1,4 - - 5 3 - - S 1034,0 10 0,0
26.03.2019 03:00:00 -0,7 -1,3 - - 5 3 - - SE 1034,3 10 0,0
26.03.2019 02:00:00 -1,1 -1,9 - - 2 1 - - SSE 1034,5 10 0,0
26.03.2019 01:00:00 0,5 -0,4 - - 4 2 - - S 1035,1 10 0,0
26.03.2019 00:00:00 0,7 -0,3 - - 2 1 - - WSW 1034,9 10 0,0
25.03.2019 23:00:00 1,5 0,3 - - 5 3 - - WSW 1035,2 15 0,0
25.03.2019 22:00:00 2,0 0,6 - - 2 1 - - SSW 1034,9 10 0,0
25.03.2019 21:00:00 4,1 1,9 - - 5 3 - - ENE 1034,7 15 0,0
25.03.2019 20:00:00 4,7 1,8 - - 5 3 - - NNE 1034,4 10 0,0
25.03.2019 19:00:00 4,9 1,5 - - 13 7 - - NNE 1034,0 10 0,0
25.03.2019 18:00:00 7,2 1,4 - - 21 11 - - N 1033,5 10 0,0
25.03.2019 17:00:00 8,5 1,4 - - 26 14 - - N - 10 0,0
25.03.2019 16:00:00 9,4 1,4 - - 29 16 - - N 1032,7 10 0,0
25.03.2019 15:00:00 9,8 1,7 - - 31 17 48 26 N 1032,5 10 0,0
25.03.2019 14:00:00 9,2 1,1 - - 31 17 50 27 N 1032,7 10 0,0
25.03.2019 13:00:00 10,9 1,4 - - 35 19 54 29 N 1032,3 10 0,0
25.03.2019 12:00:00 10,3 0,7 - - 31 17 54 29 N 1032,0 10 0,0
25.03.2019 11:00:00 10,2 1,0 - - 31 17 50 27 N 1031,6 10 0,0
25.03.2019 10:00:00 9,0 1,9 - - 35 19 46 25 NNW 1031,0 10 0,0
25.03.2019 09:00:00 7,4 1,3 8,7 8,2 28 15 - - NNW 1030,5 10 0,0
25.03.2019 08:00:00 6,5 1,2 - - 28 15 - - NW 1029,3 10 0,0
25.03.2019 07:00:00 5,0 0,2 - - 28 15 - - NW 1028,6 10 0,0
25.03.2019 06:00:00 4,3 0,2 - - 24 13 - - NW 1027,8 10 0,0
25.03.2019 05:00:00 4,5 0,4 - - 21 11 - - NW 1027,2 10 0,0
25.03.2019 04:00:00 4,4 0,6 - - 24 13 - - NW 1026,6 10 0,0
25.03.2019 03:00:00 4,7 1,5 - - 24 13 - - WNW 1026,4 10 0,0
25.03.2019 02:00:00 5,5 1,8 - - 26 14 - - WNW 1026,3 10 0,0
25.03.2019 01:00:00 6,3 2,2 - - 24 13 - - WNW 1026,1 10 0,0
25.03.2019 00:00:00 7,2 2,9 - - 26 14 - - WNW 1026,2 10 0,0
24.03.2019 23:00:00 7,8 3,7 - - 18 10 - - W 1026,2 10 0,0
24.03.2019 22:00:00 8,0 2,9 - - 16 9 - - W 1026,4 10 0,0
24.03.2019 21:00:00 7,3 2,0 - - 21 11 - - W 1026,8 10 0,0
24.03.2019 20:00:00 8,0 1,7 - - 18 10 - - W 1027,0 10 0,0
24.03.2019 19:00:00 9,3 1,2 - - 21 11 - - W 1027,2 26 0,0
24.03.2019 18:00:00 9,6 0,3 - - 21 11 - - W 1027,1 10 0,0
24.03.2019 17:00:00 10,9 0,0 - - 28 15 - - WNW 1027,3 30 0,0
24.03.2019 16:00:00 11,6 0,6 - - 26 14 - - W 1027,7 28 0,0
24.03.2019 15:00:00 11,5 0,2 - - 31 17 - - W 1028,0 25 0,0
24.03.2019 14:00:00 11,6 0,7 - - 28 15 - - W 1028,3 24 0,0
24.03.2019 13:00:00 11,2 1,3 - - 18 10 - - W 1029,1 10 0,0
24.03.2019 12:00:00 10,5 0,8 - - 22 12 - - W 1029,7 26 0,0
24.03.2019 11:00:00 10,1 0,8 - - 18 10 - - WNW 1030,5 25 0,0
24.03.2019 10:00:00 9,4 2,2 - - 15 8 - - NW 1030,9 21 0,0
24.03.2019 09:00:00 8,3 2,4 8,7 8,2 15 8 - - W 1031,2 10 0,0
24.03.2019 08:00:00 6,0 4,0 - - 9 5 - - SSW 1030,9 18 0,0
24.03.2019 07:00:00 2,6 1,4 - - 4 2 - - SW 1031,0 13 0,0
24.03.2019 06:00:00 3,8 2,0 - - 9 5 - - SE 1030,7 10 0,0
24.03.2019 05:00:00 4,3 2,3 - - 2 1 - - SSW 1031,2 16 0,0
24.03.2019 04:00:00 4,5 2,1 - - 2 1 - - SSW 1031,3 19 0,0
24.03.2019 03:00:00 5,0 2,1 - - 4 2 - - SSE 1031,5 18 0,0
24.03.2019 02:00:00 5,1 1,8 - - 5 3 - - SE 1032,1 18 0,0
24.03.2019 01:00:00 4,7 1,9 - - 4 2 - - S 1033,0 17 0,0
24.03.2019 00:00:00 5,1 1,9 - - 4 2 - - SSE 1033,3 19 0,0
23.03.2019 23:00:00 5,4 1,4 - - 4 2 - - S 1033,7 21 0,0
23.03.2019 22:00:00 5,8 0,9 - - 4 2 - - E 1033,7 22 0,0
23.03.2019 21:00:00 5,4 0,7 - - 5 3 - - ENE 1033,8 10 0,0
23.03.2019 20:00:00 6,5 -0,6 - - 4 2 - - E 1033,5 27 0,0
23.03.2019 19:00:00 6,7 -0,2 - - 8 4 - - E 1033,5 10 0,0
23.03.2019 18:00:00 7,7 -0,8 - - 11 6 - - NE 1033,1 10 0,0
23.03.2019 17:00:00 9,5 0,1 - - 11 6 - - NE 1033,1 24 0,0
23.03.2019 16:00:00 9,8 -0,2 - - 11 6 - - NNE 1033,0 10 0,0
23.03.2019 15:00:00 10,5 -0,6 - - 15 8 - - N 1033,0 25 0,0
23.03.2019 14:00:00 11,1 2,3 - - 15 8 - - N 1033,3 24 0,0
23.03.2019 13:00:00 10,7 1,7 - - 18 10 - - NNW 1033,4 23 0,0
23.03.2019 12:00:00 11,4 1,8 - - 16 9 - - NNW 1033,4 25 0,0
23.03.2019 11:00:00 10,5 3,0 - - 9 5 - - NNW 1033,0 23 0,0
23.03.2019 10:00:00 9,2 4,8 - - 11 6 - - NNW 1032,9 20 0,0
23.03.2019 09:00:00 8,6 4,2 8,7 8,0 13 7 - - NNW 1032,3 10 0,0
23.03.2019 08:00:00 8,3 5,5 - - 11 6 - - NW 1031,9 20 0,0
23.03.2019 07:00:00 7,3 4,2 - - 11 6 - - NW 1030,9 21 0,0
23.03.2019 06:00:00 8,3 5,4 - - 16 9 - - NNW 1030,0 21 0,0
23.03.2019 05:00:00 8,5 6,8 - - 11 6 - - NW 1029,5 17 0,0
23.03.2019 04:00:00 7,9 6,8 - - 4 2 - - WSW 1029,2 9 0,0
23.03.2019 03:00:00 7,9 6,8 - - 4 2 - - SSW 1028,3 8 0,0
23.03.2019 02:00:00 7,4 6,6 - - 2 1 - - S 1027,8 7 0,0
23.03.2019 01:00:00 6,8 6,0 - - 9 5 - - S 1027,4 7 0,0
23.03.2019 00:00:00 6,9 5,9 - - 8 4 - - SW 1027,0 9 0,0
22.03.2019 23:00:00 7,1 6,0 - - 8 4 - - SW 1027,2 11 0,0
22.03.2019 22:00:00 7,4 5,9 - - 9 5 - - SW 1026,9 12 0,0
22.03.2019 21:00:00 9,0 6,4 - - 15 8 - - SW 1026,5 10 0,0
22.03.2019 20:00:00 10,7 7,2 - - 18 10 - - SW 1026,3 19 0,0
22.03.2019 19:00:00 10,9 7,2 - - 18 10 - - SW 1026,4 20 0,0
22.03.2019 18:00:00 10,8 7,2 - - 18 10 - - SSW 1026,0 10 0,0
22.03.2019 17:00:00 11,1 6,9 - - 24 13 - - SW 1025,9 15 0,0
22.03.2019 16:00:00 11,4 7,1 - - 24 13 - - SW 1025,5 10 0,0
22.03.2019 15:00:00 11,1 6,8 - - 26 14 - - SW 1025,8 10 0,0
22.03.2019 14:00:00 10,6 7,0 - - 24 13 - - SW 1026,4 10 0,0
22.03.2019 13:00:00 10,7 7,2 - - 26 14 - - SW 1026,9 10 0,0
22.03.2019 12:00:00 10,3 6,8 - - 24 13 - - SSW 1027,5 10 0,0
22.03.2019 11:00:00 10,4 7,1 - - 26 14 - - SSW 1027,7 10 0,0
22.03.2019 10:00:00 10,1 6,9 - - 21 11 - - SSW 1028,1 10 0,0
22.03.2019 09:00:00 9,9 7,2 8,7 7,9 21 11 - - S 1028,3 10 0,0
22.03.2019 08:00:00 10,0 8,0 - - 16 9 - - SSW 1028,3 8 0,0
22.03.2019 07:00:00 9,7 8,1 - - 15 8 - - S 1028,3 7 0,0
22.03.2019 06:00:00 9,5 8,1 - - 15 8 - - SSE 1028,6 6 0,0
22.03.2019 05:00:00 9,4 8,2 - - 15 8 - - SSE 1028,9 6 0,0
22.03.2019 04:00:00 9,1 8,2 - - 11 6 - - SSE 1029,2 5 0,0
22.03.2019 03:00:00 9,1 8,1 - - 15 8 - - SSE 1029,5 5 0,0
22.03.2019 02:00:00 9,9 8,3 - - 15 8 - - SE 1029,8 5 0,0
22.03.2019 01:00:00 11,1 9,3 - - 13 7 - - SSE 1030,2 8 0,0
22.03.2019 00:00:00 11,2 9,4 - - 4 2 - - S 1030,6 12 0,0
21.03.2019 23:00:00 11,5 9,4 - - 8 4 - - S 1031,2 13 0,0
21.03.2019 22:00:00 11,9 9,7 - - 11 6 - - SSW 1031,3 14 0,0
21.03.2019 21:00:00 12,6 9,9 - - 4 2 - - SE 1031,9 14 0,0
21.03.2019 20:00:00 12,5 10,1 - - 8 4 - - E 1031,9 13 0,0
21.03.2019 19:00:00 13,1 10,4 - - 5 3 - - ENE 1032,0 15 0,0
21.03.2019 18:00:00 13,6 9,9 - - 2 1 - - W 1031,9 18 0,0
21.03.2019 17:00:00 13,9 10,4 - - 8 4 - - W 1031,7 10 0,0
21.03.2019 16:00:00 14,3 9,8 - - 5 3 - - WSW 1031,8 10 0,0
21.03.2019 15:00:00 14,5 9,9 - - 11 6 - - WSW 1032,0 10 0,0
21.03.2019 14:00:00 14,3 9,8 - - 5 3 - - W 1032,4 10 0,0
21.03.2019 13:00:00 14,2 9,4 - - 9 5 - - SSW 1033,1 10 0,0
21.03.2019 12:00:00 13,4 9,8 - - 8 4 - - WSW 1033,3 10 0,0
21.03.2019 11:00:00 11,7 9,3 - - 9 5 - - SW 1033,3 10 0,0
21.03.2019 10:00:00 10,3 9,2 - - 9 5 - - WSW 1033,3 7 0,0
21.03.2019 09:00:00 9,1 8,9 8,2 7,7 11 6 - - WSW 1033,2 3,0 0,0
21.03.2019 08:00:00 8,7 8,6 - - 11 6 - - SW 1032,8 0,8 0,0
21.03.2019 07:00:00 8,3 8,2 - - 9 5 - - WSW 1032,7 0,8 0,0
21.03.2019 06:00:00 8,1 8,0 - - 16 9 - - WSW 1032,0 2,0 0,0
21.03.2019 05:00:00 7,9 7,7 - - 18 10 - - WSW 1031,7 2,0 0,0
21.03.2019 04:00:00 7,5 7,3 - - 15 8 - - SW 1031,4 2,0 0,0
21.03.2019 03:00:00 6,2 5,7 - - 13 7 - - SSW 1031,7 6 0,0
21.03.2019 02:00:00 6,5 5,9 - - 9 5 - - S 1032,0 7 0,0
21.03.2019 01:00:00 6,8 6,2 - - 13 7 - - SSW 1032,1 8 0,0
21.03.2019 00:00:00 6,3 5,5 - - 9 5 - - S 1032,2 10 0,0
20.03.2019 23:00:00 7,0 6,2 - - 13 7 - - S 1032,2 10 0,0
20.03.2019 22:00:00 7,8 6,7 - - 13 7 - - SSW 1032,1 10 0,0
20.03.2019 21:00:00 7,5 6,4 - - 11 6 - - SSW 1031,9 10 0,0
20.03.2019 20:00:00 8,4 6,9 - - 11 6 - - S 1032,1 15 0,0
20.03.2019 19:00:00 9,7 7,4 - - 13 7 - - SSW 1032,1 10 0,0
20.03.2019 18:00:00 11,8 8,4 - - 15 8 - - S 1031,6 10 0,0
20.03.2019 17:00:00 12,6 8,5 - - 18 10 - - SSW 1031,3 20 0,0
20.03.2019 16:00:00 13,1 8,9 - - 18 10 - - SSW 1031,2 10 0,0
20.03.2019 15:00:00 13,0 8,6 - - 21 11 - - SSW 1031,4 10 0,0
20.03.2019 14:00:00 13,7 9,0 - - 21 11 - - SSW 1031,5 10 0,0
20.03.2019 13:00:00 13,8 8,8 - - 22 12 - - SW 1031,6 10 0,0
20.03.2019 12:00:00 13,4 9,4 - - 18 10 - - SW 1031,9 10 0,0
20.03.2019 11:00:00 12,4 9,1 - - 15 8 - - SW 1031,8 10 0,0
20.03.2019 10:00:00 10,0 8,1 - - 11 6 - - SW 1031,8 10 0,0
20.03.2019 09:00:00 9,6 8,5 7,7 7,7 9 5 - - SW 1031,5 7 0,0
20.03.2019 08:00:00 8,0 7,3 - - 11 6 - - SW 1031,1 7 0,0
20.03.2019 07:00:00 7,3 6,7 - - 11 6 - - SW 1030,4 7 0,0

tt = temperature
td = dewpoint
tt -20cm = temperature -20cm
tt -100cm = temperature -100cm
ff = wind speed
fx = gusts
dd = wind direction
ppp = reduced air pressure
vv = visibility
rr = precipitation

Next stations